Location: Colonia Mina de C?rbuni
(46.1667°N, 22.7167°E)
Time: 15:40:01
(UTC+00:00)

Courier 1B - Pass Details

Date: 01 May 2024
Orbit: 962 x 1208 km, 28.3° (Epoch: 23 May)

Event Time Altitude Azimuth Distance (km) Brightness Sun altitude
Rises 21:36:18 0° 240° (WSW) 4,093 10.6 -27.4°
Enters shadow 21:36:42 - 238° (WSW) 3,983 10.5 -27.4°
Reaches altitude 10° 21:40:00 10° 224° (SW) 3,139 - -27.5°
Maximum altitude 21:45:22 20° 181° (S) 2,453 - -27.7°
Drops below altitude 10° 21:50:41 10° 137° (SE) 3,114 - -27.9°
Sets 21:54:20 0° 122° (ESE) 4,050 - -28.0°
